This demonstration page uses our WeatherBlox Daily Observations layout. Learn more.

Left ArrowRight Arrow

31.84235, -102.49876

Hourly Observations for May 11, 2017

Temp ( °F °C ) Dew Point ( °F °C ) Humidity (%) Winds ( mph kmh ) Pressure ( in mb ) Visibility ( mi km ) Precip ( " mm )
12:53 am 00:53 Clear 66 18.9 27 -2.8 23 23 WNW 10 17 29.84 1011 10 16 0.00 0.00
1:53 am 01:53 Clear 63 17.2 28 -2.2 27 27 WNW 8 13 29.85 1011 10 16 0.00 0.00
2:53 am 02:53 Clear 62 16.7 29 -1.7 29 29 NW 8 13 29.86 1011 10 16 0.00 0.00
3:53 am 03:53 Clear 60 15.6 31 -0.6 33 33 WNW 5 7 29.86 1011 10 16 0.00 0.00
4:53 am 04:53 Clear 58 14.4 32 0 38 38 Calm 29.88 1012 10 16 0.00 0.00
5:53 am 05:53 Clear 57 13.9 34 1.1 42 42 ESE 6 9 29.89 1012 10 16 0.00 0.00
6:53 am 06:53 Clear 56 13.3 34 1.1 44 44 Calm 29.90 1012 10 16 0.00 0.00
7:53 am 07:53 Sunny 59 15 39 3.9 48 48 N 5 7 29.92 1013 10 16 0.00 0.00
8:53 am 08:53 Sunny 65 18.3 30 -1.1 27 27 NW 5 7 29.91 1013 10 16 0.00 0.00
9:53 am 09:53 Sunny 71 21.7 30 -1.1 22 22 WNW 9 15 29.90 1013 10 16 0.00 0.00
10:53 am 10:53 Sunny 75 23.9 31 -0.6 20 20 NW 16 26 29.90 1013 10 16 0.00 0.00
11:53 am 11:53 Sunny 76 24.4 35 1.7 23 23 NW 14 22 29.91 1013 10 16 0.00 0.00
12:53 pm 12:53 Sunny 77 25 35 1.7 22 22 NW 12 19 29.90 1013 10 16 0.00 0.00
1:53 pm 13:53 Sunny 80 26.7 39 3.9 23 23 NW 15 24 29.89 1012 10 16 0.00 0.00
2:53 pm 14:53 Sunny 82 27.8 37 2.8 20 20 NW 20 31 29.88 1012 10 16 0.00 0.00
3:53 pm 15:53 Sunny 82 27.8 36 2.2 19 19 NW 12 19 29.88 1012 10 16 0.00 0.00
4:53 pm 16:53 Sunny 82 27.8 35 1.7 18 18 N 13 20 29.87 1011 10 16 0.00 0.00
5:53 pm 17:53 Sunny 82 27.8 36 2.2 19 19 NW 13 20 29.86 1011 10 16 0.00 0.00
6:53 pm 18:53 Sunny 81 27.2 38 3.3 21 21 N 14 22 29.87 1011 10 16 0.00 0.00
7:53 pm 19:53 Sunny 79 26.1 37 2.8 22 22 N 14 22 29.89 1012 10 16 0.00 0.00
8:53 pm 20:53 Clear 74 23.3 39 3.9 28 28 N 14 22 29.93 1013 10 16 0.00 0.00
9:53 pm 21:53 Clear 71 21.7 40 4.4 32 32 NNE 9 15 29.95 1014 10 16 0.00 0.00
10:53 pm 22:53 Clear 69 20.6 41 5 36 36 NNE 10 17 29.97 1015 10 16 0.00 0.00
11:53 pm 23:53 Clear 66 18.9 42 5.6 42 42 NNE 12 19 29.99 1016 10 16 0.00 0.00

Powered by AerisWeather